Time,TemperatureF,DewpointF,PressureIn,WindDirection,WindDirectionDegrees,WindSpeedMPH,WindSpeedGustMPH,Humidity,HourlyPrecipIn,Conditions,Clouds,dailyrainin,SoftwareType,DateUTC
2013-01-01 00:03:00,33.0,32.0,-100.00,WNW,290,3.0,8.0,96,-99.99,,,-99.99,,2013-01-01 05:03:00,
2013-01-01 00:12:00,33.0,32.0,-100.00,West,270,3.0,9.0,95,-99.99,,,-99.99,,2013-01-01 05:12:00,
2013-01-01 00:22:00,33.0,32.0,-100.00,West,275,3.0,7.0,95,-99.99,,,-99.99,,2013-01-01 05:22:00,
2013-01-01 00:33:00,33.0,32.0,-100.00,West,275,5.0,8.0,94,-99.99,,,-99.99,,2013-01-01 05:33:00,
2013-01-01 00:42:00,33.0,32.0,-100.00,WSW,245,5.0,8.0,94,-99.99,,,-99.99,,2013-01-01 05:42:00,
2013-01-01 00:52:00,33.0,32.0,-100.00,WSW,255,5.0,9.0,94,-99.99,,,-99.99,,2013-01-01 05:52:00,
2013-01-01 01:02:00,34.0,32.0,-100.00,WSW,255,3.0,10.0,94,-99.99,,,-99.99,,2013-01-01 06:02:00,
2013-01-01 01:12:00,34.0,32.0,-100.00,WSW,250,6.0,10.0,93,-99.99,,,-99.99,,2013-01-01 06:12:00,
2013-01-01 01:22:00,34.0,32.0,-100.00,WSW,240,6.0,10.0,92,-99.99,,,-99.99,,2013-01-01 06:22:00,
2013-01-01 01:32:00,34.0,32.0,-100.00,WSW,250,2.0,12.0,92,-99.99,,,-99.99,,2013-01-01 06:32:00,
2013-01-01 01:42:00,34.0,32.0,-100.00,WSW,240,3.0,8.0,92,-99.99,,,-99.99,,2013-01-01 06:42:00,
2013-01-01 01:52:00,34.0,32.0,-100.00,SW,230,2.0,10.0,92,-99.99,,,-99.99,,2013-01-01 06:52:00,
2013-01-01 02:02:00,34.0,32.0,-100.00,SSW,210,5.0,10.0,92,-99.99,,,-99.99,,2013-01-01 07:02:00,
2013-01-01 02:12:00,34.0,32.0,-100.00,SW,225,5.0,7.0,92,-99.99,,,-99.99,,2013-01-01 07:12:00,
2013-01-01 02:22:00,34.0,32.0,-100.00,West,270,3.0,13.0,92,-99.99,,,-99.99,,2013-01-01 07:22:00,
2013-01-01 02:32:00,34.0,32.0,-100.00,WNW,285,5.0,10.0,92,-99.99,,,-99.99,,2013-01-01 07:32:00,
2013-01-01 02:42:00,34.0,32.0,-100.00,West,275,3.0,8.0,92,-99.99,,,-99.99,,2013-01-01 07:42:00,
2013-01-01 02:52:00,34.0,32.0,-100.00,West,270,2.0,7.0,92,-99.99,,,-99.99,,2013-01-01 07:52:00,
2013-01-01 03:02:00,34.0,32.0,-100.00,WSW,240,5.0,8.0,92,-99.99,,,-99.99,,2013-01-01 08:02:00,
2013-01-01 03:12:00,34.0,32.0,-100.00,West,280,3.0,8.0,92,-99.99,,,-99.99,,2013-01-01 08:12:00,
2013-01-01 03:22:00,34.0,32.0,-100.00,SSW,205,5.0,10.0,92,-99.99,,,-99.99,,2013-01-01 08:22:00,
2013-01-01 03:32:00,34.0,32.0,-100.00,WSW,245,6.0,12.0,92,-99.99,,,-99.99,,2013-01-01 08:32:00,
2013-01-01 03:42:00,34.0,32.0,-100.00,WSW,255,2.0,12.0,92,-99.99,,,-99.99,,2013-01-01 08:42:00,
2013-01-01 03:53:00,34.0,32.0,-100.00,West,265,3.0,9.0,92,-99.99,,,-99.99,,2013-01-01 08:53:00,
2013-01-01 04:02:00,33.0,32.0,-100.00,SW,215,2.0,8.0,94,-99.99,,,-99.99,,2013-01-01 09:02:00,
2013-01-01 04:12:00,34.0,32.0,-100.00,SW,235,5.0,8.0,94,-99.99,,,-99.99,,2013-01-01 09:12:00,
2013-01-01 07:03:00,34.0,32.0,-100.00,WSW,255,6.0,12.0,92,-99.99,,,-99.99,,2013-01-01 12:03:00,
2013-01-01 07:12:00,34.0,32.0,-100.00,West,260,3.0,10.0,92,-99.99,,,-99.99,,2013-01-01 12:12:00,
2013-01-01 07:22:00,34.0,32.0,-100.00,WSW,250,5.0,10.0,92,-99.99,,,-99.99,,2013-01-01 12:22:00,
2013-01-01 07:33:00,34.0,32.0,-100.00,WSW,255,5.0,9.0,92,-99.99,,,-99.99,,2013-01-01 12:33:00,
2013-01-01 07:43:00,34.0,32.0,-100.00,West,265,7.0,10.0,92,-99.99,,,-99.99,,2013-01-01 12:43:00,
2013-01-01 07:52:00,34.0,32.0,-100.00,West,270,5.0,12.0,92,-99.99,,,-99.99,,2013-01-01 12:52:00,
2013-01-01 08:03:00,34.0,32.0,-100.00,West,265,3.0,12.0,92,-99.99,,,-99.99,,2013-01-01 13:03:00,
2013-01-01 08:12:00,34.0,32.0,-100.00,West,280,5.0,9.0,92,-99.99,,,-99.99,,2013-01-01 13:12:00,
2013-01-01 08:22:00,34.0,32.0,-100.00,SW,230,2.0,9.0,92,-99.99,,,-99.99,,2013-01-01 13:22:00,
2013-01-01 08:33:00,34.0,32.0,-100.00,West,270,3.0,10.0,92,-99.99,,,-99.99,,2013-01-01 13:33:00,
2013-01-01 08:43:00,34.0,32.0,-100.00,West,270,5.0,12.0,91,-99.99,,,-99.99,,2013-01-01 13:43:00,
2013-01-01 08:52:00,34.0,32.0,-100.00,West,280,5.0,9.0,91,-99.99,,,-99.99,,2013-01-01 13:52:00,
2013-01-01 09:03:00,35.0,32.0,-100.00,West,265,5.0,10.0,91,-99.99,,,-99.99,,2013-01-01 14:03:00,
2013-01-01 09:12:00,35.0,32.0,-100.00,West,270,5.0,9.0,91,-99.99,,,-99.99,,2013-01-01 14:12:00,
2013-01-01 09:22:00,35.0,32.0,-100.00,West,280,5.0,9.0,90,-99.99,,,-99.99,,2013-01-01 14:22:00,
2013-01-01 09:32:00,35.0,32.0,-100.00,West,275,6.0,13.0,89,-99.99,,,-99.99,,2013-01-01 14:32:00,
2013-01-01 09:42:00,35.0,32.0,-100.00,NW,310,5.0,13.0,87,-99.99,,,-99.99,,2013-01-01 14:42:00,
2013-01-01 09:53:00,36.0,32.0,-100.00,WNW,285,5.0,12.0,87,-99.99,,,-99.99,,2013-01-01 14:53:00,
2013-01-01 10:03:00,36.0,32.0,-100.00,NW,315,7.0,16.0,85,-99.99,,,-99.99,,2013-01-01 15:03:00,
2013-01-01 10:12:00,36.0,32.0,-100.00,WNW,285,9.0,17.0,84,-99.99,,,-99.99,,2013-01-01 15:12:00,
2013-01-01 10:22:00,36.0,32.0,-100.00,NW,320,10.0,17.0,85,-99.99,,,-99.99,,2013-01-01 15:22:00,
2013-01-01 10:33:00,37.0,32.0,-100.00,NW,305,14.0,28.0,82,-99.99,,,-99.99,,2013-01-01 15:33:00,
2013-01-01 10:43:00,37.0,32.0,-100.00,WNW,295,13.0,30.0,82,-99.99,,,-99.99,,2013-01-01 15:43:00,
2013-01-01 10:53:00,37.0,32.0,-100.00,WNW,295,13.0,28.0,83,-99.99,,,-99.99,,2013-01-01 15:53:00,
2013-01-01 11:02:00,36.0,32.0,-100.00,NNW,335,15.0,24.0,87,-99.99,,,-99.99,,2013-01-01 16:02:00,
2013-01-01 11:12:00,35.0,32.0,-100.00,NW,305,15.0,24.0,89,-99.99,,,-99.99,,2013-01-01 16:12:00,
2013-01-01 11:22:00,35.0,32.0,-100.00,NW,305,15.0,24.0,89,-99.99,,,-99.99,,2013-01-01 16:22:00,
2013-01-01 11:33:00,35.0,32.0,-100.00,NW,310,17.0,30.0,91,-99.99,,,-99.99,,2013-01-01 16:33:00,
2013-01-01 11:43:00,35.0,32.0,-100.00,NW,315,13.0,21.0,89,-99.99,,,-99.99,,2013-01-01 16:43:00,
2013-01-01 11:52:00,35.0,32.0,-100.00,NW,305,10.0,27.0,89,-99.99,,,-99.99,,2013-01-01 16:52:00,
2013-01-01 12:02:00,35.0,32.0,-100.00,WNW,300,16.0,27.0,89,-99.99,,,-99.99,,2013-01-01 17:02:00,
2013-01-01 12:12:00,35.0,32.0,-100.00,NW,325,8.0,22.0,89,-99.99,,,-99.99,,2013-01-01 17:12:00,
2013-01-01 12:23:00,35.0,32.0,-100.00,NNW,330,10.0,21.0,89,-99.99,,,-99.99,,2013-01-01 17:23:00,
2013-01-01 12:33:00,35.0,32.0,-100.00,NNW,330,8.0,16.0,89,-99.99,,,-99.99,,2013-01-01 17:33:00,
2013-01-01 12:43:00,35.0,32.0,-100.00,NNW,335,15.0,22.0,90,-99.99,,,-99.99,,2013-01-01 17:43:00,
2013-01-01 12:53:00,35.0,32.0,-100.00,NW,320,10.0,22.0,91,-99.99,,,-99.99,,2013-01-01 17:53:00,
2013-01-01 13:03:00,35.0,32.0,-100.00,WNW,295,15.0,29.0,90,-99.99,,,-99.99,,2013-01-01 18:03:00,
2013-01-01 13:13:00,35.0,32.0,-100.00,NW,325,8.0,29.0,88,-99.99,,,-99.99,,2013-01-01 18:13:00,
2013-01-01 13:52:00,35.0,32.0,-100.00,NNW,335,14.0,24.0,91,-99.99,,,-99.99,,2013-01-01 18:52:00,
2013-01-01 14:02:00,34.0,32.0,-100.00,NNW,330,18.0,37.0,92,-99.99,,,-99.99,,2013-01-01 19:02:00,
2013-01-01 15:02:00,33.0,32.0,-100.00,NW,305,10.0,29.0,95,-99.99,,,-99.99,,2013-01-01 20:02:00,
2013-01-01 15:13:00,33.0,32.0,-100.00,NW,315,13.0,25.0,96,-99.99,,,-99.99,,2013-01-01 20:13:00,
2013-01-01 15:23:00,33.0,32.0,-100.00,NNW,335,14.0,28.0,98,-99.99,,,-99.99,,2013-01-01 20:23:00,
2013-01-01 15:32:00,32.0,32.0,-100.00,NNW,335,15.0,24.0,99,-99.99,,,-99.99,,2013-01-01 20:32:00,
2013-01-01 15:42:00,32.0,13.0,-100.00,NW,325,13.0,28.0,46,-99.99,,,-99.99,,2013-01-01 20:42:00,
2013-01-01 15:52:00,32.0,13.0,-100.00,WNW,300,10.0,18.0,46,-99.99,,,-99.99,,2013-01-01 20:52:00,
2013-01-01 16:03:00,32.0,13.0,-100.00,NW,315,10.0,18.0,46,-99.99,,,-99.99,,2013-01-01 21:03:00,
2013-01-01 16:13:00,31.0,13.0,-100.00,NNW,335,9.0,15.0,47,-99.99,,,-99.99,,2013-01-01 21:13:00,
2013-01-01 16:22:00,31.0,13.0,-100.00,NNW,335,12.0,17.0,47,-99.99,,,-99.99,,2013-01-01 21:22:00,
2013-01-01 16:33:00,31.0,12.0,-100.00,NNW,330,10.0,16.0,45,-99.99,,,-99.99,,2013-01-01 21:33:00,
2013-01-01 16:42:00,31.0,12.0,-100.00,NW,315,8.0,17.0,46,-99.99,,,-99.99,,2013-01-01 21:42:00,
2013-01-01 16:52:00,31.0,12.0,-100.00,NW,310,12.0,20.0,46,-99.99,,,-99.99,,2013-01-01 21:52:00,
2013-01-01 17:03:00,30.0,12.0,-100.00,NW,325,8.0,18.0,47,-99.99,,,-99.99,,2013-01-01 22:03:00,
2013-01-01 17:12:00,30.0,12.0,-100.00,NW,325,8.0,18.0,47,-99.99,,,-99.99,,2013-01-01 22:12:00,
2013-01-01 17:22:00,30.0,12.0,-100.00,NW,315,13.0,18.0,47,-99.99,,,-99.99,,2013-01-01 22:22:00,
2013-01-01 17:33:00,30.0,11.0,-100.00,NNW,335,13.0,22.0,46,-99.99,,,-99.99,,2013-01-01 22:33:00,
2013-01-01 17:43:00,29.0,11.0,-100.00,NNW,330,7.0,20.0,46,-99.99,,,-99.99,,2013-01-01 22:43:00,
2013-01-01 17:52:00,29.0,11.0,-100.00,NW,325,10.0,18.0,46,-99.99,,,-99.99,,2013-01-01 22:52:00,
2013-01-01 18:03:00,29.0,11.0,-100.00,NW,310,10.0,23.0,47,-99.99,,,-99.99,,2013-01-01 23:03:00,
2013-01-01 18:13:00,29.0,11.0,-100.00,NW,320,14.0,23.0,47,-99.99,,,-99.99,,2013-01-01 23:13:00,
2013-01-01 18:22:00,29.0,12.0,-100.00,NW,320,9.0,22.0,49,-99.99,,,-99.99,,2013-01-01 23:22:00,
2013-01-01 18:32:00,29.0,11.0,-100.00,NNW,330,10.0,20.0,48,-99.99,,,-99.99,,2013-01-01 23:32:00,
2013-01-01 18:42:00,28.0,11.0,-100.00,NW,320,8.0,16.0,48,-99.99,,,-99.99,,2013-01-01 23:42:00,
2013-01-01 18:52:00,28.0,11.0,-100.00,NNW,330,9.0,18.0,48,-99.99,,,-99.99,,2013-01-01 23:52:00,
2013-01-01 19:03:00,28.0,11.0,-100.00,NW,315,8.0,20.0,49,-99.99,,,-99.99,,2013-01-02 00:03:00,
2013-01-01 19:12:00,28.0,11.0,-100.00,NW,310,6.0,15.0,49,-99.99,,,-99.99,,2013-01-02 00:12:00,
2013-01-01 19:22:00,28.0,11.0,-100.00,NW,310,5.0,12.0,49,-99.99,,,-99.99,,2013-01-02 00:22:00,
2013-01-01 19:43:00,27.0,10.0,-100.00,NW,315,7.0,13.0,48,-99.99,,,-99.99,,2013-01-02 00:43:00,
2013-01-01 19:52:00,27.0,10.0,-100.00,NW,310,3.0,13.0,49,-99.99,,,-99.99,,2013-01-02 00:52:00,
2013-01-01 20:02:00,27.0,10.0,-100.00,NW,310,7.0,20.0,49,-99.99,,,-99.99,,2013-01-02 01:02:00,
2013-01-01 20:32:00,26.0,9.0,-100.00,WNW,300,8.0,13.0,49,-99.99,,,-99.99,,2013-01-02 01:32:00,
2013-01-01 22:22:00,24.0,9.0,-100.00,NW,325,7.0,10.0,54,-99.99,,,-99.99,,2013-01-02 03:22:00,
2013-01-01 22:32:00,23.0,8.0,-100.00,NW,315,5.0,10.0,52,-99.99,,,-99.99,,2013-01-02 03:32:00,
2013-01-01 22:42:00,23.0,8.0,-100.00,NW,320,7.0,13.0,52,-99.99,,,-99.99,,2013-01-02 03:42:00,
2013-01-01 22:52:00,23.0,8.0,-100.00,NNW,335,7.0,13.0,53,-99.99,,,-99.99,,2013-01-02 03:52:00,
2013-01-01 23:03:00,23.0,8.0,-100.00,NW,315,6.0,12.0,53,-99.99,,,-99.99,,2013-01-02 04:03:00,
2013-01-01 23:12:00,22.0,8.0,-100.00,NW,320,5.0,10.0,54,-99.99,,,-99.99,,2013-01-02 04:12:00,
2013-01-01 23:22:00,22.0,7.0,-100.00,NW,315,7.0,12.0,52,-99.99,,,-99.99,,2013-01-02 04:22:00,
2013-01-01 23:32:00,22.0,6.0,-100.00,NW,325,8.0,16.0,50,-99.99,,,-99.99,,2013-01-02 04:32:00,
2013-01-01 23:42:00,22.0,6.0,-100.00,NW,315,7.0,12.0,51,-99.99,,,-99.99,,2013-01-02 04:42:00,
2013-01-01 23:52:00,22.0,6.0,-100.00,NW,315,7.0,13.0,51,-99.99,,,-99.99,,2013-01-02 04:52:00,